星链-3317 (STARLINK-3317 )

导读 | 星芒AI

STARLINK-3317 是 SpaceX Starlink 项目中的一颗低轨通信卫星,属于第三代星链卫星(Gen2)系列。该卫星于2024年发射,旨在为全球用户提供高速、低延迟的互联网服务。它运行在约550公里高的近地轨道,配备先进通信设备,支持宽带数据传输。Starlink 卫星群由数千颗卫星组成,致力于实现全球覆盖,特别是在偏远和网络基础设施薄弱地区。STARLINK-3317 的部署进一步增强了 Starlink 网络的稳定性和服务能力。

基本信息
目录编号:
50156
目录名称:
STARLINK-3317
国际标识:
2021-125A
轨道中心:
EARTH
卫星名称:
星链-3317
卫星全名:
星链-3317 (STARLINK-3317 )
卫星状态:
在轨 (已飞行1463 天)
发射日期:
2021-12-18 UTC
国别 :
美国 (US)
星等 :
--
轨道信息
数据来源 国际轨道数据
星历时间: 2025-12-20T12:29:55+0800
7小时前
查看轨道信息
半长轴: 6632.209km
偏心率: 0.000233
轨道倾角: 53.212°
近地点辐角 183.162°
升交点赤经 219.558°
平近点角 176.940°
近地点: 252.526km
远地点: 255.618km
周期: 89.587分钟
每日圈数: 16.073686
详细信息
固有亮度:
5
最大亮度:
2.5
卫星平台:
Starlink v1.5
覆盖范围:
全球
运营商:
太空探索技术公司
运营商所在国:
美国
制造商(研发单位):
太空探索技术公司
制造商所在国:
美国
使用方式:
暂无
卫星简介
星链(Starlink)计划是由太空探索技术公司(SpaceX)提出的一个巨型低轨卫星互联网星座项目,计划在2019年至2024年间在太空搭建由约1.2万颗卫星组成的“星链”网络,其中1584颗将部署在地球上空550千米处的近地轨道,并从2020年开始工作。该卫星仍在工作。
2D轨道图
3D轨道图
轨道高度分析图
轨道倾角分析图
轨道综合分析图
查看轨道综合分析图